User: anonymous   Login
Location: Unspecified
(0.0000°N, 0.0000°E)
Time: 11:26:54
(UTC+00:00)
Language:

Vanguard 2 - Orbit

View from above orbital plane
View from above orbital plane
View from above satellite
View from above satellite

Ground track
Ground track

The orbit data is extracted from the following two-line orbital elements,

1    11U 59001A   21023.16842547  .00000324  00000-0  17867-3 0  9993
2    11  32.8681 310.4842 1467348  51.8922 320.5125 11.85735548642810
Epoch (UTC): 23 January 2021 04:02:31
Eccentricity: 0.1467348
inclination: 32.8681°
perigee height: 553 km
apogee height: 2937 km
right ascension of ascending node: 310.4842°
argument of perigee: 51.8922°
revolutions per day: 11.85735548
mean anomaly at epoch: 320.5125°
orbit number at epoch: 64281

The dashed part of the orbit path shows where the satellite is in the earth's shadow,  

DLR